Terminal Aerodrome Forecast
Issued by NWS Cheyenne, WY

Home | Current Version | Previous Version | Text Only | Print | Product List | Glossary On
Versions: 1 2 3 4 5 6 7 8 9 10 11 12 13 14 15 16 17 18 19 20 21 22 23 24 25 26 27 28 29 30
000
FTUS45 KCYS 181100
TAFCYS
TAF
KCYS 181120Z 1812/1912 28012KT P6SM SKC
     FM181600 27012G23KT P6SM SKC
     FM181800 20014G25KT P6SM SCT100
     FM190100 20008KT P6SM SKC
     FM190700 28008KT P6SM SKC=

USA.gov is the U.S. government's official web portal to all federal, state and local government web resources and services.